Location: Fornova de Taro
(44.7000°N, 10.1000°E)
Time: 02:55:53
(UTC+00:00)

Cosmos 1656 Rocket - Pass Details

Date: 26 May 2022
Orbit: 796 x 845 km, 71.1° (Epoch: 26 June)

Event Time Altitude Azimuth Distance (km) Brightness Sun altitude
Rises 02:01:19 0° 336° (NNW) 3,312 7.2 -14.2°
Reaches altitude 10° 02:03:44 10° 338° (NNW) 2,377 6.4 -14.0°
Maximum altitude 02:09:09 71° 63° (ENE) 843 3.9 -13.3°
Drops below altitude 10° 02:14:33 10° 148° (SSE) 2,369 5.9 -12.7°
Sets 02:16:58 0° 150° (SSE) 3,300 6.6 -12.4°
